User: anonymous   Login
Location: Ammerl�gen
(47.2167°N, 9.6000°E)
Time: 19:52:39
(UTC+00:00)
Language:

VELOX 1 - Orbit

View from above orbital plane
View from above orbital plane
View from above satellite
View from above satellite

Ground track
Ground track

The orbit data is extracted from the following two-line orbital elements,

1 40057U 14034E   21339.44378945  .00000899  00000-0  13111-3 0  9996
2 40057  98.3455 139.6005 0009987 226.5736 133.4647 14.78398680400804
Epoch (UTC): 05 December 2021 10:39:03
Eccentricity: 0.0009987
inclination: 98.3455°
perigee height: 627 km
apogee height: 641 km
right ascension of ascending node: 139.6005°
argument of perigee: 226.5736°
revolutions per day: 14.78398680
mean anomaly at epoch: 133.4647°
orbit number at epoch: 40080

The dashed part of the orbit path shows where the satellite is in the earth's shadow,  

DLR